Weather Roundup
Issued by NWS

Home | Current Version | Previous Version | Graphics & Text | Print | Product List | Glossary Off
Versions: 1 2 3 4 5 6 7 8 9 10 11 12 13 14 15 16 17 18 19 20 21 22 23 24 25 26 27 28 29 30 31 32 33 34 35 36 37 38 39 40 41 42 43 44 45 46 47 48 49 50

000
NZUS93 KARX 220410
HRRWXR

CURRENT HOURLY OBSERVATIONS ACROSS
MUCH OF THE UPPER MISSISSIPPI VALLEY
NATIONAL WEATHER SERVICE LA CROSSE WI
1100 PM CDT THU AUG 21 2014


...SOUTHEAST MINNESOTA...


CITY           SKY/WX    TMP DP  RH WIND       PRES   REMARKS
ROCHESTER      MOCLDY    74  71  91 S7        29.88S
ROCHESTER/MAYO FAIR      77  71  82 S8        29.87S
WINONA         PTCLDY    73  70  88 CALM      29.87R
AUSTIN         CLOUDY    75  73  94 S3        29.88R
ALBERT LEA     PTCLDY    79  73  83 S3        29.87S
DODGE CENTER   PTCLDY    75  72  88 S7        29.87S
PRESTON        MOCLDY    73  73 100 S7        29.89S
OWATONNA       CLEAR     77  72  83 S5        29.86R
FARIBAULT      CLEAR     79  72  78 CALM      29.85R
$$

...ELSEWHERE IN MINNESOTA...


CITY           SKY/WX    TMP DP  RH WIND       PRES   REMARKS
MINNEAPOLIS    PTCLDY    76  73  91 NW6       29.83R
INTNL FALLS    CLOUDY    65  60  84 E9        29.92F
DULUTH         DRIZZLE   63  60  90 E9        29.92S FOG
RED WING       MOCLDY    79  73  83 SE6       29.83R
REDWOOD FALLS  CLEAR     74  72  93 W5        29.86R
MANKATO        PTCLDY    77  72  83 NW5       29.85R
WORTHINGTON    CLEAR     70  12  11 NW5       29.91S
FAIRMONT       PTCLDY    72  63  73 MISG      29.87S
$$

...SOUTHWEST WISCONSIN...


CITY           SKY/WX    TMP DP  RH WIND       PRES   REMARKS
LA CROSSE      PTCLDY    77  71  82 SE8       29.87S
PRAIRIE DU CHI MOCLDY    73  70  92 E3        29.89S
BOSCOBEL       PTCLDY    72  70  93 CALM      29.91R FOG
LONE ROCK      CLOUDY    75  71  87 E5        29.91S
PLATTEVILLE    PTCLDY    73  72  96 E7        29.94R
FORT MC COY    CLEAR     70  69  95 CALM      29.90S
CAMP DOUGLAS   CLEAR     71  71 100 SE6       29.90F
VIROQUA        FAIR      71  71 100 SE5       29.92S
WIS DELLS      CLEAR     70  68  93 S5        29.92S FOG
$$

...ELSEWHERE IN WISCONSIN...


CITY           SKY/WX    TMP DP  RH WIND       PRES   REMARKS
MILWAUKEE      CLOUDY    71  68  90 SE7       29.95S FOG
MADISON        MOCLDY    75  72  90 S5        29.93S
GREEN BAY      MOCLDY    66  64  93 SE5       29.94F
EAU CLAIRE     CLOUDY    75  72  90 NE6       29.86R
BLACK RVR FLS  FAIR      72  72 100 CALM      29.88S
MEDFORD        FOG       66  66  99 SE6       29.93F VSB 1/2
WAUSAU         CLOUDY    65  65 100 E8        29.94S FOG
WIS RAPIDS     CLOUDY    73  70  90 E6        29.93R
MARSHFIELD     CLOUDY    71  69  93 E5        29.92S FOG
RICE LAKE      CLOUDY    71  68  92 E6        29.89S
$$

...NORTHEAST IOWA...


CITY           SKY/WX    TMP DP  RH WIND       PRES   REMARKS
WATERLOO       CLEAR     74  72  93 S6        29.87S
DUBUQUE        MOCLDY    73  71  93 E6        29.92S
DECORAH        MOCLDY    72  72 100 SE5       29.89R
MASON CITY     PTCLDY    73  72  96 S7        29.89S
CHARLES CITY   PTCLDY    73  72  94 S5        29.90R
OELWEIN        MOCLDY    73  73 100 S6        29.91S
$$

...ELSEWHERE IN IOWA...


CITY           SKY/WX    TMP DP  RH WIND       PRES   REMARKS
DES MOINES     MOCLDY    82  76  81 SE5       29.88R
IOWA CITY      CLEAR     75  75 100 CALM      29.90R
FORT DODGE     CLEAR     75  72  88 S3        29.89R
MARSHALLTOWN   CLEAR     76  74  93 S5        29.88S
CEDAR RAPIDS   CLEAR     73  73 100 SE3       29.89S FOG
$$

...NORTHERN ILLINOIS...


CITY           SKY/WX    TMP DP  RH WIND       PRES   REMARKS
CHICAGO-OHARE  LGT RAIN  75  70  84 S3        29.95R
DUPAGE         CLOUDY    75  73  93 E3        29.95R
CHICAGO-MIDWAY CLOUDY    77  73  87 SE3       29.95R
MOLINE         PTCLDY    76  73  91 CALM      29.89S
ROCKFORD       CLOUDY    75  72  90 NE3       29.96R
STERLING       MOCLDY    75  73  94 E5        29.93S
PEORIA         MOCLDY    83  76  79 S7        29.92R HX  91
$$

NOTE: "FAIR" INDICATES FEW OR NO CLOUDS BELOW 12,000 FEET WITH NO
SIGNIFICANT WEATHER AND/OR OBSTRUCTIONS TO VISIBILITY. WIND
SPEEDS ARE IN MILES-PER-HOUR.



USA.gov is the U.S. government's official web portal to all federal, state and local government web resources and services.